Other Public Products
Issued by NWS Grand Forks, ND

Home | Current Version | Previous Version | Graphics & Text | Print | Product List | Glossary On
Versions: 1 2 3 4 5 6 7 8 9 10 11 12 13 14 15 16 17 18 19 20 21 22 23 24 25 26 27 28 29 30 31 32 33 34 35 36 37 38 39 40 41 42 43 44 45 46 47 48 49 50
000
FPUS83 KFGF 300510
OPUFGF
PRAIRIE TO PINES WEATHER ROUNDUP
NATIONAL WEATHER SERVICE EASTERN NORTH DAKOTA/GRAND FORKS ND
1200 AM CDT MON MAY 30 2016

 **SATELLITE DATA USED TO AUGMENT SKY COVER AT AUTOMATED STATIONS**
 *****  WEATHER ACROSS EASTERN NORTH DAKOTA  *****

CITY           SKY/WX    TMP DP  RH WIND       PRES   REMARKS
GRAND FORKS    CLEAR     55  48  77 S3        29.91S
GRAND FORKS AF CLEAR     55  51  86 SW3       29.92S
GRAND CITY NWS   N/A     55 N/A N/A VRB2        N/A
BUXTON           N/A     63  45  51 SW3         N/A
DEVILS LAKE    CLEAR     55  50  83 CALM      29.94S
FARGO          CLEAR     58  49  72 CALM      29.93S
WAHPETON ARPT  CLEAR     55  41  58 CALM      29.96R
$$

 *****  WEATHER ACROSS CENTRAL AND WESTERN NORTH DAKOTA  *****

CITY           SKY/WX    TMP DP  RH WIND       PRES   REMARKS
JAMESTOWN      CLEAR     59  47  64 SW6       29.96R
BISMARCK       CLEAR     55  51  86 SE5       29.96R
MINOT          PTCLDY    58  46  64 CALM      29.92S
MINOT AFB      CLEAR     55  45  70 S7        29.91S
GARRISON         N/A     59  46  62 CALM      29.94S
WILLISTON      CLEAR     50  43  77 CALM      29.93S
DICKINSON      CLOUDY    54  46  74 S8        29.95R
HETTINGER      CLEAR     55  49  80 S7        29.99S
$$

 *****  OTHER OBSERVATIONS NORTHEAST NORTH DAKOTA  *****

CITY           SKY/WX    TMP DP  RH WIND       PRES   REMARKS
WALHALLA       FAIR      55  52  88 SW5       29.90F
LANGDON        FAIR      54  50  87 CALM      29.93F
CAVALIER       FAIR      57  54  88 SW3       29.90S
GRAFTON        FAIR      61  59  94 S5        29.92F
CANDO          NOT AVBL
FORT TOTTEN      N/A     56  42  60 CALM      29.95S
ROLLA          FAIR      54  43  66 SW5       29.94S
RUGBY          FAIR      59  45  58 S5        29.92F
 ***** THE ABOVE OBSERVATIONS ARE NON NWS ARE NOT QUALITY
        CONTROLLED AND MAY MIS-REPORT RAIN FOR SNOW...
$$

 *****  OTHER OBSERVATIONS SOUTHEAST NORTH DAKOTA *****

CITY           SKY/WX    TMP DP  RH WIND       PRES   REMARKS
COOPERSTOWN    NOT AVBL
VALLEY CITY    FAIR      59  43  55 CALM      29.97S
OAKES            N/A    N/A N/A N/A MISG        N/A
GWINNER        MOCLDY    61  54  77 S6        29.97S
SHEYENNE NWR     N/A     55  48  77 SW2       29.95S
BUFFALO          N/A     61  42  50 SE3         N/A
WYNDMERE         N/A     57  39  51 SW3         N/A
 ***** THE ABOVE OBSERVATIONS ARE NON NWS ARE NOT QUALITY
       CONTROLLED AND MAY MIS-REPORT RAIN FOR SNOW...
$$

  *****  WEATHER ACROSS NORTHERN MINNESOTA  *****

CITY           SKY/WX    TMP DP  RH WIND       PRES   REMARKS
FLAG ISLAND    NOT AVBL
WARROAD        CLEAR     54  48  82 CALM      29.92S
ROSEAU         PTCLDY    55  50  82 CALM      29.91S
HALLOCK        CLEAR     55  54  94 S6        29.90S
THF RVR FALLS  CLEAR     55  50  82 CALM      29.94S
HALSTAD        NOT AVBL
FOSSTON        CLEAR     52  50  93 CALM      29.95S
BAUDETTE       CLEAR     52  48  86 CALM      29.91S
WASKISH        CLEAR     59  54  82 CALM      29.92S
CROOKSTON      CLEAR     57  54  88 CALM      29.93S
$$
  *****  WEATHER ACROSS CENTRAL AND WEST MINNESOTA  *****

CITY           SKY/WX    TMP DP  RH WIND       PRES   REMARKS
BEMIDJI        CLEAR     49  48  97 CALM      29.94S
PARK RAPIDS    CLEAR     54  51  90 CALM      29.96R
WADENA         PTCLDY    54  48  82 CALM      29.97R
DETROIT LAKES  CLEAR     55  52  88 CALM      29.97S
MOORHEAD       CLEAR     61  50  67 SE5       29.95R
FERGUS FALLS   CLEAR     63  46  55 SE5       29.94R
ELBOW LAKE     FAIR      61  47  60 E5        29.98S
MORRIS MN      CLEAR     57  46  67 S5        29.98R
STAPLES        CLEAR     54  52  94 S3        29.98R
WHEATON        PTCLDY    63  46  55 S5        29.99R
$$
  *****  WEATHER ELSEWHERE ACROSS MINNESOTA  *****

CITY           SKY/WX    TMP DP  RH WIND       PRES   REMARKS
DULUTH         CLEAR     53  50  89 W9        29.93S
INTRNTL FALLS  CLEAR     46  45  96 CALM      29.90R
ELY            PTCLDY    54  52  94 CALM      29.90F
CLOQUET        CLEAR     57  52  82 W6        29.95S
BRAINERD       CLEAR     50  50 100 S5        29.97S
HIBBING        CLEAR     47  47 100 CALM      29.93S FOG
ALEXANDRIA     CLEAR     56  50  80 CALM      30.00R
SAINT CLOUD    CLEAR     56  55  97 CALM      29.99R
MINNEAPOLIS    CLEAR     67  57  70 CALM      29.99R
$$

  *****  WEATHER ACROSS SOUTH DAKOTA  *****

CITY           SKY/WX    TMP DP  RH WIND       PRES   REMARKS
SIOUX FALLS    CLEAR     56  52  86 NE3       30.02F
BROOKINGS      CLEAR     61  54  77 SW5       30.03S
WATERTOWN      CLEAR     62  50  64 S3        30.02R
HURON          CLEAR     64  51  62 S8        29.99F
SISSETON         N/A     57  48  72 SW5       29.97S
ABERDEEN       PTCLDY    60  50  69 S10       29.98R
MITCHELL       CLOUDY    64  56  75 E6        30.00F
PIERRE         CLEAR     64  53  67 SE8       29.96F
MOBRIDGE       CLEAR     59  55  87 SE5       29.95S
RAPID CITY     CLOUDY    59  53  80 NE7       29.98S
$$

  *****  SOME WEATHER IN NEARBY STATES *****

CITY           SKY/WX    TMP DP  RH WIND       PRES   REMARKS
GLASGOW MT     CLEAR     58  44  60 NE5       29.90S
GREAT FALLS MT CLOUDY    53  43  68 S6        29.97S
CHEYENNE WY    CLOUDY    51  42  71 SW9       30.13S
SCOTTSBLUFF NE CLOUDY    55  43  63 E7        30.03R
OMAHA NE       CLOUDY    72  61  68 SE6       30.01S
DES MOINES IA  CLOUDY    71  58  63 S5        30.02S
DAVENPORT IA   CLOUDY    71  57  61 SW8       30.03S
CHICAGO IL     CLEAR     67  58  72 W5        30.00S
EAU CLAIRE WI  PTCLDY    61  56  83 CALM      29.97R
LA CROSSE WI   PTCLDY    65  60  84 S7        29.98S
$$

  *****  SOME NATIONAL WEATHER *****

CITY           SKY/WX    TMP DP  RH WIND       PRES   REMARKS
LA GUARDIA NY  LGT RAIN  71  71 100 S7        30.04F
RALEIGH NC     MOCLDY    66  64  93 NE5       30.03F
ATLANTA GA     PTCLDY    73  63  70 S3        30.05F
NEW ORLEANS LA PTCLDY    78  68  71 SW7       30.06R
OKLAHOMA CITY  CLOUDY    68  61  78 NE7       30.06F
ALBUQUERQUE NM PTCLDY    68  17  14 S9        30.06R
SALT LAKE CITY CLOUDY    66  46  48 E3        30.04F
LOS ANGELES CA PTCLDY    60  54  80 W9        30.01R
BOISE ID       PTCLDY    65  35  33 NW8       29.97R
SEATTLE WA     PTCLDY    57  43  59 NE6       30.23R
$$

*** WEATHER ACROSS MANITOBA...SASKATCHEWAN AND ONTARIO ***
                ***ONTARIO***

CITY           SKY/WX    TMP DP  RH WIND       PRES   REMARKS
GERALDTON      CLOUDY    50  48  93 NW5       29.76S FOG
THUNDER BAY    PTCLDY    55  54  94 W7        29.83R
SIOUX LOOKOUT  CLOUDY    54  52  94 NW6       29.83S
TORONTO        MOCLDY    72  57  60 SW8       29.90F
BIG TROUT LK   CLOUDY    45  36  70 NE8G17    29.89S
PICKLE LAKE    NOT AVBL
DRYDEN         CLOUDY    54  52  94 W8        29.85S
KENORA         CLEAR     54  52  94 NW5       29.89S
$$
                *** MANITOBA***

CITY           SKY/WX    TMP DP  RH WIND       PRES   REMARKS
BRANDON        CLEAR     54  52  94 E8        29.90S
DAUPHIN        PTCLDY    48  48 100 CALM      29.88S
ISLAND LAKE    LGT RAIN  48  48 100 E6        29.94S
PILOT MOUND      N/A     55  48  76 S5          N/A
THE PAS        LGT RAIN  50  48  93 NW5       29.92F FOG
THOMPSON       LGT RAIN  46  45  93 NE9       29.98S
WINNIPEG       PTCLDY    55  54  94 NE5       29.90F
LYNN LAKE      LGT RAIN  45  43  93 E10       30.01R
CHURCHILL      CLOUDY    27  25  93 NE14      30.21S FOG     WCI  15
GILLAM         LGT RAIN  39  34  81 NE13G18   30.04R
$$
                ***SASKATCHEWAN***

CITY           SKY/WX    TMP DP  RH WIND       PRES   REMARKS
ESTEVAN        NOT AVBL
KINDERSLEY     MOCLDY    55  45  67 E10       29.84S
LLOYDMINSTER   MOCLDY    52  46  82 VRB15G22  29.92R
PRINCE ALBERT  MOCLDY    50  46  87 E5        29.93R
REGINA         CLEAR     55  45  67 SE2       29.88F
YORKTON        PTCLDY    57  46  67 S6        29.87S  C1F1C2F2C3F3C4F4C5F5C6F6C7F7C8F8C9F9CaFaCbFbCcFcCdFdCe!



USA.gov is the U.S. government's official web portal to all federal, state and local government web resources and services.